Погода в Вилге

Россия / Республика Карелия     61°49′06″N   34°05′15″E
темп.,
°C
ветер,
м/с
пор.,
м/с
влажн.,
%
обл.,
%
осадки,
мм/ч
давл.,
гПа
погр.,
м
11 апреля, вс
вс1100:000юз613795 0.0 1012905
03:00−1юз6148743 0.0 1015743
06:00−1юз5149010 0.0 1017521
09:00+2юз616785 0.0 1019753
12:00+5юз614735 0.0 10211327
15:00+6зюз511705 0.1 10241543
18:00+5юз510725 0.0 10261029
21:00+1ююз31083100 0.0 1029260
12 апреля, пн
пн1200:000ююз2685100 0.0 103187
03:000ю2281100 0.0 103141
06:00+1юв277699 0.0 1030116
09:00+4юв4138980 0.0 1027441
12:00+10ю51480100 0.0 1026716
15:00+13ююз51369100 0.0 10251375
18:00+12ююз41269100 0.0 1024678
21:00+9ю41578100 0.0 1023422
13 апреля, вт
вт1300:00+8ю51578100 0.0 1023468
03:00+7ю51487100 0.0 1021393
06:00+6ю4128928 0.0 1020298
09:00+8ююз41180100 0.0 1019406
12:00+11юз5865100 0.0 1019820
15:00+12юз51060100 0.0 10191364
18:00+8юз31181100 0.0 1019689
21:00+7юз3118587 0.0 1019533
14 апреля, ср
ср1400:00+5зюз3991100 0.0 1019535
03:00+4юз41071100 0.0 1019508
06:00+1юз3107893 0.0 1019395
09:00+3зюз4966100 0.0 1020676
12:00+6з5949100 0.0 10201177
15:00+6з4749100 0.0 10211437
18:00+5зсз3554100 0.0 10221256
21:00+2сз267386 0.0 1024185
15 апреля, чт
чт1500:00−1сз1184100 0.0 102523
03:00−2зсз12845 0.0 102549
06:00−2з14835 0.0 1025115
09:00+3зсз35572 0.0 1025752
12:00+6сз464658 0.0 10261475
15:00+8ссз5940100 0.0 10262469
18:00+5с49540 0.0 10281431
21:00+1с29684 0.0 1031250